| time (UTC) | temp F | wind direction | speed MPH | gust MPH | rain 1hr in | rain 24hr in | rain mn in | humidity % | barometer mb |
| 20260507112404 | 62 | 121 | 6.0 | 12.0 | 0.00 | 0.00 | 0.00 | 65 | 1016.2 |
| 20260507111904 | 61 | 145 | 6.0 | 13.0 | 0.00 | 0.00 | 0.00 | 65 | 1016.2 |
| 20260507111404 | 61 | 130 | 5.0 | 12.0 | 0.00 | 0.00 | 0.00 | 67 | 1016.2 |
| 20260507110905 | 61 | 137 | 7.0 | 12.0 | 0.00 | 0.00 | 0.00 | 65 | 1016.2 |
| 20260507105904 | 61 | 144 | 6.0 | 12.0 | 0.00 | 0.00 | 0.00 | 65 | 1016.3 |
| 20260507105404 | 61 | 137 | 6.0 | 12.0 | 0.00 | 0.00 | 0.00 | 65 | 1016.3 |
| 20260507104903 | 61 | 141 | 6.0 | 10.0 | 0.00 | 0.00 | 0.00 | 67 | 1016.3 |
| 20260507104404 | 61 | 147 | 6.0 | 12.0 | 0.00 | 0.00 | 0.00 | 67 | 1016.3 |
| 20260507103903 | 61 | 131 | 6.0 | 12.0 | 0.00 | 0.00 | 0.00 | 66 | 1016.4 |
| 20260507102903 | 61 | 138 | 6.0 | 12.0 | 0.00 | 0.00 | 0.00 | 66 | 1016.3 |
| 20260507102404 | 61 | 128 | 6.0 | 12.0 | 0.00 | 0.00 | 0.00 | 66 | 1016.3 |
| 20260507101904 | 61 | 118 | 7.0 | 12.0 | 0.00 | 0.00 | 0.00 | 66 | 1016.4 |
| 20260507100903 | 61 | 117 | 7.0 | 12.0 | 0.00 | 0.00 | 0.00 | 67 | 1016.4 |
| 20260507100404 | 60 | 121 | 6.0 | 12.0 | 0.00 | 0.00 | 0.00 | 68 | 1016.3 |
| 20260507095904 | 60 | 124 | 7.0 | 12.0 | 0.00 | 0.00 | 0.00 | 67 | 1016.3 |
| 20260507094904 | 60 | 117 | 7.0 | 12.0 | 0.00 | 0.00 | 0.00 | 68 | 1016.3 |
| 20260507094405 | 60 | 110 | 6.0 | 10.0 | 0.00 | 0.00 | 0.00 | 69 | 1016.4 |
| 20260507093403 | 59 | 127 | 7.0 | 12.0 | 0.00 | 0.00 | 0.00 | 71 | 1016.4 |
| 20260507092904 | 58 | 147 | 5.0 | 10.0 | 0.00 | 0.00 | 0.00 | 71 | 1016.4 |
| 20260507092404 | 58 | 139 | 7.0 | 12.0 | 0.00 | 0.00 | 0.00 | 72 | 1016.5 |
| 20260507091904 | 58 | 142 | 6.0 | 9.0 | 0.00 | 0.00 | 0.00 | 72 | 1016.5 |
| 20260507090903 | 58 | 129 | 5.0 | 9.0 | 0.00 | 0.00 | 0.00 | 71 | 1016.4 |
| 20260507090405 | 58 | 132 | 6.0 | 10.0 | 0.00 | 0.00 | 0.00 | 70 | 1016.4 |
| 20260507085904 | 59 | 148 | 6.0 | 12.0 | 0.00 | 0.00 | 0.00 | 69 | 1016.4 |
| 20260507085403 | 59 | 131 | 4.0 | 10.0 | 0.00 | 0.00 | 0.00 | 70 | 1016.4 |
| 20260507084405 | 58 | 119 | 5.0 | 12.0 | 0.00 | 0.00 | 0.00 | 70 | 1016.3 |
| 20260507083905 | 58 | 125 | 7.0 | 12.0 | 0.00 | 0.00 | 0.00 | 70 | 1016.3 |
| 20260507083404 | 58 | 113 | 6.0 | 12.0 | 0.00 | 0.00 | 0.00 | 71 | 1016.3 |
| 20260507082904 | 57 | 106 | 7.0 | 12.0 | 0.00 | 0.00 | 0.00 | 73 | 1016.1 |
| 20260507082404 | 57 | 100 | 7.0 | 13.0 | 0.00 | 0.00 | 0.00 | 74 | 1016.1 |
| 20260507081904 | 57 | 98 | 6.0 | 12.0 | 0.00 | 0.00 | 0.00 | 74 | 1016.0 |
| 20260507080404 | 57 | 88 | 7.0 | 12.0 | 0.00 | 0.00 | 0.00 | 75 | 1016.0 |
| 20260507075903 | 56 | 112 | 7.0 | 12.0 | 0.00 | 0.00 | 0.00 | 75 | 1016.0 |
| 20260507075404 | 56 | 109 | 7.0 | 12.0 | 0.00 | 0.00 | 0.00 | 75 | 1016.0 |
| 20260507074903 | 56 | 111 | 5.0 | 12.0 | 0.00 | 0.00 | 0.00 | 75 | 1015.9 |
| 20260507074404 | 56 | 112 | 4.0 | 9.0 | 0.00 | 0.00 | 0.00 | 75 | 1016.0 |
| 20260507073904 | 55 | 99 | 5.0 | 10.0 | 0.00 | 0.00 | 0.00 | 75 | 1016.0 |
| 20260507073404 | 55 | 105 | 6.0 | 10.0 | 0.00 | 0.00 | 0.00 | 75 | 1016.0 |
| 20260507072905 | 55 | 109 | 6.0 | 12.0 | 0.00 | 0.00 | 0.00 | 75 | 1016.0 |
| 20260507072405 | 55 | 98 | 6.0 | 10.0 | 0.00 | 0.00 | 0.00 | 75 | 1016.0 |
| 20260507071903 | 55 | 112 | 6.0 | 10.0 | 0.00 | 0.00 | 0.00 | 75 | 1016.0 |
| 20260507071404 | 54 | 95 | 6.0 | 12.0 | 0.00 | 0.00 | 0.00 | 75 | 1016.0 |
| 20260507070904 | 54 | 110 | 6.0 | 10.0 | 0.00 | 0.00 | 0.00 | 75 | 1016.0 |
| 20260507070403 | 54 | 83 | 5.0 | 9.0 | 0.00 | 0.00 | 0.00 | 75 | 1015.9 |
| 20260507065904 | 53 | 100 | 4.0 | 9.0 | 0.00 | 0.00 | 0.00 | 75 | 1015.9 |
| 20260507065404 | 53 | 104 | 5.0 | 10.0 | 0.00 | 0.00 | 0.00 | 76 | 1015.9 |
| 20260507064905 | 53 | 97 | 6.0 | 9.0 | 0.00 | 0.00 | 0.00 | 76 | 1015.8 |
| 20260507064404 | 53 | 88 | 6.0 | 9.0 | 0.00 | 0.00 | 0.00 | 76 | 1015.8 |
| 20260507063903 | 52 | 92 | 2.0 | 8.0 | 0.00 | 0.00 | 0.00 | 77 | 1015.8 |
| 20260507063404 | 52 | 97 | 4.0 | 8.0 | 0.00 | 0.00 | 0.00 | 78 | 1015.9 |
| 20260507062403 | 51 | 95 | 2.0 | 5.0 | 0.00 | 0.00 | 0.00 | 80 | 1015.8 |
| 20260507061903 | 51 | 63 | 3.0 | 5.0 | 0.00 | 0.00 | 0.00 | 80 | 1015.8 |
| 20260507061405 | 50 | 62 | 2.0 | 7.0 | 0.00 | 0.00 | 0.00 | 81 | 1015.8 |
| 20260507060905 | 50 | 74 | 2.0 | 3.0 | 0.00 | 0.00 | 0.00 | 82 | 1015.7 |
| 20260507060403 | 49 | 98 | 2.0 | 3.0 | 0.00 | 0.00 | 0.00 | 82 | 1015.7 |
| 20260507055904 | 49 | 99 | 3.0 | 8.0 | 0.00 | 0.00 | 0.00 | 81 | 1015.6 |
| 20260507055404 | 49 | 88 | 3.0 | 5.0 | 0.00 | 0.00 | 0.00 | 82 | 1015.6 |
| 20260507054904 | 48 | 80 | 2.0 | 6.0 | 0.00 | 0.00 | 0.00 | 82 | 1015.6 |
| 20260507054406 | 48 | 72 | 2.0 | 3.0 | 0.00 | 0.00 | 0.00 | 82 | 1015.6 |
| 20260507053903 | 48 | 76 | 1.0 | 3.0 | 0.00 | 0.00 | 0.00 | 82 | 1015.5 |
| 20260507053404 | 48 | 59 | 1.0 | 3.0 | 0.00 | 0.00 | 0.00 | 82 | 1015.5 |
| 20260507052904 | 47 | 71 | 1.0 | 5.0 | 0.00 | 0.00 | 0.00 | 83 | 1015.5 |
| 20260507052403 | 47 | 49 | 2.0 | 3.0 | 0.00 | 0.00 | 0.00 | 83 | 1015.5 |
| 20260507051904 | 47 | 52 | 2.0 | 5.0 | 0.00 | 0.00 | 0.00 | 83 | 1015.4 |
| 20260507051406 | 47 | 62 | 1.0 | 5.0 | 0.00 | 0.00 | 0.00 | 84 | 1015.4 |
| 20260507050903 | 46 | 59 | 3.0 | 3.0 | 0.00 | 0.00 | 0.00 | 84 | 1015.4 |
| 20260507050404 | 46 | 63 | 2.0 | 6.0 | 0.00 | 0.00 | 0.00 | 84 | 1015.4 |
| 20260507045903 | 46 | 56 | 1.0 | 3.0 | 0.00 | 0.00 | 0.00 | 85 | 1015.3 |
| 20260507045404 | 45 | 68 | 1.0 | 3.0 | 0.00 | 0.00 | 0.00 | 84 | 1015.3 |
| 20260507044904 | 45 | 62 | 1.0 | 3.0 | 0.00 | 0.00 | 0.00 | 84 | 1015.3 |
| 20260507044405 | 45 | 62 | 1.0 | 2.0 | 0.00 | 0.00 | 0.00 | 84 | 1015.3 |
| 20260507043904 | 45 | 62 | 0.0 | 2.0 | 0.00 | 0.00 | 0.00 | 84 | 1015.3 |
| 20260507043404 | 45 | 28 | 1.0 | 3.0 | 0.00 | 0.00 | 0.00 | 84 | 1015.2 |
| 20260507042904 | 45 | 47 | 1.0 | 3.0 | 0.00 | 0.00 | 0.00 | 84 | 1015.2 |
| 20260507042404 | 45 | 54 | 2.0 | 3.0 | 0.00 | 0.00 | 0.00 | 84 | 1015.2 |
| 20260507041904 | 45 | 65 | 1.0 | 3.0 | 0.00 | 0.00 | 0.00 | 84 | 1015.2 |
| 20260507041404 | 45 | 57 | 1.0 | 3.0 | 0.00 | 0.00 | 0.00 | 84 | 1015.2 |
| 20260507040905 | 45 | 58 | 2.0 | 3.0 | 0.00 | 0.00 | 0.00 | 85 | 1015.2 |
| 20260507040403 | 45 | 56 | 1.0 | 3.0 | 0.00 | 0.00 | 0.00 | 85 | 1015.2 |
| 20260507035404 | 45 | 38 | 2.0 | 5.0 | 0.00 | 0.00 | 0.00 | 84 | 1015.2 |
| 20260507034904 | 45 | 36 | 1.0 | 2.0 | 0.00 | 0.00 | 0.00 | 84 | 1015.2 |
| 20260507034404 | 45 | 36 | 1.0 | 3.0 | 0.00 | 0.00 | 0.00 | 84 | 1015.1 |
| 20260507033903 | 45 | 36 | 1.0 | 3.0 | 0.00 | 0.00 | 0.00 | 83 | 1015.2 |
| 20260507032404 | 46 | 49 | 1.0 | 3.0 | 0.00 | 0.00 | 0.00 | 83 | 1015.0 |
| 20260507031903 | 46 | 47 | 2.0 | 3.0 | 0.00 | 0.00 | 0.00 | 83 | 1015.1 |
| 20260507031403 | 46 | 43 | 1.0 | 3.0 | 0.00 | 0.00 | 0.00 | 83 | 1015.0 |
| 20260507030904 | 46 | 51 | 1.0 | 5.0 | 0.00 | 0.00 | 0.00 | 84 | 1015.0 |
| 20260507030404 | 45 | 34 | 2.0 | 5.0 | 0.00 | 0.00 | 0.00 | 84 | 1015.1 |
| 20260507025903 | 45 | 33 | 2.0 | 5.0 | 0.00 | 0.00 | 0.00 | 84 | 1015.1 |
| 20260507025404 | 45 | 32 | 1.0 | 3.0 | 0.00 | 0.00 | 0.00 | 83 | 1015.0 |
| 20260507024404 | 45 | 34 | 1.0 | 3.0 | 0.00 | 0.00 | 0.00 | 84 | 1015.0 |
| 20260507023903 | 45 | 42 | 2.0 | 3.0 | 0.00 | 0.00 | 0.00 | 84 | 1014.9 |
| 20260507023405 | 45 | 30 | 2.0 | 3.0 | 0.00 | 0.00 | 0.00 | 85 | 1014.9 |
| 20260507022904 | 45 | 20 | 2.0 | 3.0 | 0.00 | 0.00 | 0.00 | 85 | 1014.9 |
| 20260507022404 | 44 | 46 | 2.0 | 3.0 | 0.00 | 0.00 | 0.00 | 86 | 1014.8 |
| 20260507021903 | 44 | 38 | 2.0 | 3.0 | 0.00 | 0.00 | 0.00 | 85 | 1014.9 |
| 20260507021404 | 44 | 44 | 2.0 | 3.0 | 0.00 | 0.00 | 0.00 | 85 | 1014.9 |
| 20260507020404 | 44 | 22 | 2.0 | 3.0 | 0.00 | 0.00 | 0.00 | 83 | 1014.8 |
| 20260507015904 | 44 | 46 | 2.0 | 3.0 | 0.00 | 0.00 | 0.00 | 83 | 1014.8 |
| 20260507015404 | 44 | 46 | 1.0 | 3.0 | 0.00 | 0.00 | 0.00 | 83 | 1014.8 |
| 20260507014904 | 44 | 46 | 1.0 | 3.0 | 0.00 | 0.00 | 0.00 | 83 | 1014.8 |
| 20260507014405 | 44 | 46 | 0.0 | 1.0 | 0.00 | 0.00 | 0.00 | 83 | 1014.8 |
| 20260507013404 | 45 | 46 | 0.0 | 1.0 | 0.00 | 0.00 | 0.00 | 82 | 1014.7 |
| 20260507012903 | 45 | 46 | 0.0 | 2.0 | 0.00 | 0.00 | 0.00 | 81 | 1014.7 |
| 20260507012404 | 45 | 46 | 0.0 | 0.0 | 0.00 | 0.00 | 0.00 | 81 | 1014.8 |
| 20260507011903 | 45 | 46 | 0.0 | 1.0 | 0.00 | 0.00 | 0.00 | 81 | 1014.8 |
| 20260507010903 | 45 | 46 | 0.0 | 2.0 | 0.00 | 0.00 | 0.00 | 79 | 1014.8 |
| 20260507010405 | 46 | 46 | 0.0 | 1.0 | 0.00 | 0.00 | 0.00 | 79 | 1014.8 |
| 20260507004904 | 46 | 46 | 0.0 | 1.0 | 0.00 | 0.00 | 0.00 | 78 | 1014.9 |
| 20260507003903 | 46 | 46 | 0.0 | 2.0 | 0.00 | 0.00 | 0.00 | 76 | 1014.9 |
| 20260507002904 | 47 | 46 | 0.0 | 0.0 | 0.00 | 0.00 | 0.00 | 75 | 1014.9 |
| 20260507002405 | 47 | 46 | 0.0 | 1.0 | 0.00 | 0.00 | 0.00 | 74 | 1014.9 |
| 20260507001904 | 47 | 46 | 0.0 | 1.0 | 0.00 | 0.00 | 0.00 | 73 | 1014.9 |
| 20260507001405 | 47 | 46 | 0.0 | 1.0 | 0.00 | 0.00 | 0.00 | 73 | 1015.0 |
| 20260507000905 | 48 | 44 | 1.0 | 2.0 | 0.00 | 0.00 | 0.00 | 73 | 1015.0 |
| 20260507000406 | 48 | 43 | 0.0 | 2.0 | 0.00 | 0.00 | 0.00 | 72 | 1015.0 |
| 20260506235903 | 48 | 43 | 0.0 | 2.0 | 0.00 | 0.00 | 0.00 | 72 | 1014.9 |
| 20260506235404 | 49 | 43 | 0.0 | 1.0 | 0.00 | 0.00 | 0.00 | 72 | 1014.9 |
| 20260506234404 | 49 | 43 | 0.0 | 0.0 | 0.00 | 0.00 | 0.00 | 70 | 1014.9 |
| 20260506233904 | 50 | 43 | 0.0 | 2.0 | 0.00 | 0.00 | 0.00 | 70 | 1014.9 |
| 20260506233403 | 50 | 43 | 1.0 | 3.0 | 0.00 | 0.00 | 0.00 | 70 | 1014.9 |
| 20260506232904 | 50 | 43 | 2.0 | 3.0 | 0.00 | 0.00 | 0.00 | 70 | 1014.9 |
| 20260506232404 | 50 | 20 | 2.0 | 3.0 | 0.00 | 0.00 | 0.00 | 70 | 1014.9 |
| 20260506231904 | 51 | 20 | 1.0 | 3.0 | 0.00 | 0.00 | 0.00 | 69 | 1014.8 |
| 20260506231404 | 51 | 20 | 2.0 | 3.0 | 0.00 | 0.00 | 0.00 | 68 | 1014.8 |
| 20260506230403 | 52 | 18 | 1.0 | 3.0 | 0.00 | 0.00 | 0.00 | 67 | 1014.8 |
| 20260506225904 | 52 | 28 | 2.0 | 3.0 | 0.00 | 0.00 | 0.00 | 67 | 1014.7 |
| 20260506225405 | 52 | 31 | 2.0 | 5.0 | 0.00 | 0.00 | 0.00 | 66 | 1014.7 |
| 20260506224903 | 52 | 49 | 1.0 | 3.0 | 0.00 | 0.00 | 0.00 | 66 | 1014.7 |
| 20260506224403 | 52 | 40 | 2.0 | 6.0 | 0.00 | 0.00 | 0.00 | 65 | 1014.7 |
| 20260506223905 | 53 | 37 | 3.0 | 6.0 | 0.00 | 0.00 | 0.00 | 65 | 1014.6 |
| 20260506223403 | 53 | 30 | 2.0 | 3.0 | 0.00 | 0.00 | 0.00 | 64 | 1014.6 |
| 20260506222904 | 53 | 44 | 1.0 | 6.0 | 0.00 | 0.00 | 0.00 | 64 | 1014.6 |
| 20260506222404 | 53 | 42 | 3.0 | 6.0 | 0.00 | 0.00 | 0.00 | 65 | 1014.6 |
| 20260506221904 | 53 | 35 | 1.0 | 3.0 | 0.00 | 0.00 | 0.00 | 64 | 1014.6 |
| 20260506221404 | 53 | 35 | 1.0 | 3.0 | 0.00 | 0.00 | 0.00 | 64 | 1014.6 |
| 20260506220904 | 53 | 35 | 3.0 | 6.0 | 0.00 | 0.00 | 0.00 | 63 | 1014.6 |
| 20260506220403 | 53 | 56 | 2.0 | 5.0 | 0.00 | 0.00 | 0.00 | 62 | 1014.5 |
| 20260506215905 | 54 | 31 | 2.0 | 6.0 | 0.00 | 0.00 | 0.00 | 62 | 1014.5 |
| 20260506215404 | 53 | 54 | 3.0 | 8.0 | 0.00 | 0.00 | 0.00 | 62 | 1014.4 |
| 20260506214903 | 53 | 49 | 3.0 | 6.0 | 0.00 | 0.00 | 0.00 | 63 | 1014.4 |
| 20260506213904 | 54 | 38 | 1.0 | 3.0 | 0.00 | 0.00 | 0.00 | 64 | 1014.5 |
| 20260506213403 | 54 | 38 | 1.0 | 3.0 | 0.00 | 0.00 | 0.00 | 64 | 1014.5 |
| 20260506212904 | 54 | 22 | 2.0 | 3.0 | 0.00 | 0.00 | 0.00 | 64 | 1014.5 |
| 20260506212403 | 54 | 29 | 1.0 | 5.0 | 0.00 | 0.00 | 0.00 | 64 | 1014.5 |
| 20260506211403 | 54 | 36 | 2.0 | 6.0 | 0.00 | 0.00 | 0.00 | 64 | 1014.4 |
| 20260506210904 | 54 | 33 | 2.0 | 6.0 | 0.00 | 0.00 | 0.00 | 64 | 1014.3 |
| 20260506210404 | 54 | 33 | 3.0 | 6.0 | 0.00 | 0.00 | 0.00 | 64 | 1014.4 |
| 20260506205903 | 54 | 34 | 3.0 | 7.0 | 0.00 | 0.00 | 0.00 | 64 | 1014.4 |
| 20260506204404 | 55 | 21 | 2.0 | 3.0 | 0.00 | 0.00 | 0.00 | 62 | 1014.2 |
| 20260506203903 | 55 | 48 | 2.0 | 3.0 | 0.00 | 0.00 | 0.00 | 62 | 1014.2 |
| 20260506203403 | 55 | 34 | 2.0 | 3.0 | 0.00 | 0.00 | 0.00 | 61 | 1014.2 |
| 20260506202404 | 55 | 29 | 2.0 | 6.0 | 0.00 | 0.00 | 0.00 | 60 | 1014.0 |
| 20260506201905 | 55 | 59 | 2.0 | 5.0 | 0.00 | 0.00 | 0.00 | 60 | 1014.0 |
| 20260506201403 | 55 | 60 | 1.0 | 3.0 | 0.00 | 0.00 | 0.00 | 60 | 1014.0 |
| 20260506200905 | 55 | 47 | 3.0 | 6.0 | 0.00 | 0.00 | 0.00 | 59 | 1014.0 |
| 20260506200404 | 55 | 61 | 3.0 | 7.0 | 0.00 | 0.00 | 0.00 | 59 | 1013.9 |
| 20260506195905 | 55 | 51 | 1.0 | 3.0 | 0.00 | 0.00 | 0.00 | 57 | 1013.8 |
| 20260506195404 | 56 | 41 | 3.0 | 7.0 | 0.00 | 0.00 | 0.00 | 56 | 1013.8 |
| 20260506194904 | 56 | 49 | 3.0 | 6.0 | 0.00 | 0.00 | 0.00 | 56 | 1013.8 |
| 20260506194404 | 56 | 3 | 3.0 | 9.0 | 0.00 | 0.00 | 0.00 | 55 | 1013.8 |
| 20260506193903 | 56 | 21 | 2.0 | 5.0 | 0.00 | 0.00 | 0.00 | 55 | 1013.7 |
| 20260506193404 | 56 | 14 | 2.0 | 5.0 | 0.00 | 0.00 | 0.00 | 54 | 1013.6 |
| 20260506192903 | 56 | 30 | 2.0 | 8.0 | 0.00 | 0.00 | 0.00 | 54 | 1013.5 |
| 20260506192403 | 56 | 42 | 5.0 | 8.0 | 0.00 | 0.00 | 0.00 | 54 | 1013.5 |
| 20260506190905 | 56 | 5 | 5.0 | 8.0 | 0.00 | 0.00 | 0.00 | 55 | 1013.4 |
| 20260506190404 | 56 | 35 | 3.0 | 8.0 | 0.00 | 0.00 | 0.00 | 54 | 1013.4 |
| 20260506185904 | 56 | 30 | 3.0 | 8.0 | 0.00 | 0.00 | 0.00 | 55 | 1013.3 |
| 20260506185405 | 57 | 14 | 5.0 | 9.0 | 0.00 | 0.00 | 0.00 | 54 | 1013.3 |
| 20260506184903 | 57 | 24 | 4.0 | 7.0 | 0.00 | 0.00 | 0.00 | 53 | 1013.3 |
| 20260506183903 | 57 | 20 | 3.0 | 6.0 | 0.00 | 0.00 | 0.00 | 52 | 1013.2 |
| 20260506182904 | 57 | 35 | 3.0 | 8.0 | 0.00 | 0.00 | 0.00 | 54 | 1013.2 |
| 20260506182404 | 57 | 31 | 5.0 | 10.0 | 0.00 | 0.00 | 0.00 | 54 | 1013.1 |
| 20260506181905 | 57 | 10 | 5.0 | 9.0 | 0.00 | 0.00 | 0.00 | 55 | 1013.1 |
| 20260506180903 | 58 | 22 | 5.0 | 9.0 | 0.00 | 0.00 | 0.00 | 52 | 1013.0 |
| 20260506180403 | 58 | 38 | 3.0 | 8.0 | 0.00 | 0.00 | 0.00 | 52 | 1012.9 |
| 20260506175903 | 58 | 27 | 3.0 | 7.0 | 0.00 | 0.00 | 0.00 | 52 | 1012.9 |
| 20260506175405 | 58 | 29 | 3.0 | 9.0 | 0.00 | 0.00 | 0.00 | 51 | 1012.8 |
| 20260506174905 | 58 | 42 | 3.0 | 9.0 | 0.00 | 0.00 | 0.00 | 52 | 1012.8 |
| 20260506174404 | 58 | 30 | 4.0 | 10.0 | 0.00 | 0.00 | 0.00 | 51 | 1012.7 |
| 20260506172904 | 58 | 352 | 3.0 | 7.0 | 0.00 | 0.00 | 0.00 | 48 | 1012.6 |
| 20260506171904 | 58 | 358 | 3.0 | 6.0 | 0.00 | 0.00 | 0.00 | 49 | 1012.6 |
| 20260506171404 | 58 | 12 | 5.0 | 8.0 | 0.00 | 0.00 | 0.00 | 49 | 1012.6 |
| 20260506170904 | 58 | 54 | 4.0 | 6.0 | 0.00 | 0.00 | 0.00 | 49 | 1012.6 |
| 20260506165905 | 59 | 337 | 3.0 | 6.0 | 0.00 | 0.00 | 0.00 | 48 | 1012.6 |
| 20260506164903 | 59 | 10 | 4.0 | 8.0 | 0.00 | 0.00 | 0.00 | 47 | 1012.6 |
| 20260506163904 | 59 | 27 | 3.0 | 8.0 | 0.00 | 0.00 | 0.00 | 48 | 1012.6 |
| 20260506163404 | 59 | 324 | 2.0 | 6.0 | 0.00 | 0.00 | 0.00 | 48 | 1012.5 |
| 20260506162903 | 59 | 22 | 3.0 | 8.0 | 0.00 | 0.00 | 0.00 | 48 | 1012.5 |
| 20260506162404 | 59 | 4 | 5.0 | 8.0 | 0.00 | 0.00 | 0.00 | 49 | 1012.6 |
| 20260506161904 | 59 | 6 | 4.0 | 8.0 | 0.00 | 0.00 | 0.00 | 49 | 1012.6 |
| 20260506161404 | 59 | 42 | 1.0 | 7.0 | 0.00 | 0.00 | 0.00 | 50 | 1012.6 |
| 20260506160904 | 59 | 16 | 3.0 | 7.0 | 0.00 | 0.00 | 0.00 | 50 | 1012.6 |
| 20260506160403 | 59 | 13 | 3.0 | 7.0 | 0.00 | 0.00 | 0.00 | 49 | 1012.6 |
| 20260506155904 | 59 | 22 | 2.0 | 6.0 | 0.00 | 0.00 | 0.00 | 49 | 1012.6 |
| 20260506155404 | 59 | 19 | 2.0 | 6.0 | 0.00 | 0.00 | 0.00 | 49 | 1012.6 |
| 20260506154904 | 59 | 32 | 3.0 | 6.0 | 0.00 | 0.00 | 0.00 | 48 | 1012.6 |
| 20260506154404 | 59 | 49 | 3.0 | 7.0 | 0.00 | 0.00 | 0.00 | 48 | 1012.6 |
| 20260506153903 | 59 | 20 | 5.0 | 10.0 | 0.00 | 0.00 | 0.00 | 48 | 1012.7 |
| 20260506153404 | 59 | 9 | 5.0 | 8.0 | 0.00 | 0.00 | 0.00 | 48 | 1012.7 |
| 20260506152903 | 59 | 12 | 3.0 | 7.0 | 0.00 | 0.00 | 0.00 | 47 | 1012.7 |
| 20260506152403 | 59 | 312 | 4.0 | 9.0 | 0.00 | 0.00 | 0.00 | 47 | 1012.7 |
| 20260506151904 | 59 | 3 | 4.0 | 8.0 | 0.00 | 0.00 | 0.00 | 49 | 1012.7 |
| 20260506151404 | 59 | 35 | 3.0 | 9.0 | 0.00 | 0.00 | 0.00 | 49 | 1012.7 |
| 20260506150904 | 59 | 345 | 4.0 | 10.0 | 0.00 | 0.00 | 0.00 | 48 | 1012.7 |
| 20260506150404 | 59 | 18 | 5.0 | 7.0 | 0.00 | 0.00 | 0.00 | 49 | 1012.7 |
| 20260506145905 | 59 | 26 | 3.0 | 7.0 | 0.00 | 0.00 | 0.00 | 49 | 1012.7 |
| 20260506145405 | 59 | 18 | 3.0 | 6.0 | 0.00 | 0.00 | 0.00 | 49 | 1012.8 |
| 20260506144905 | 59 | 23 | 2.0 | 8.0 | 0.00 | 0.00 | 0.00 | 49 | 1012.8 |
| 20260506143905 | 60 | 327 | 4.0 | 7.0 | 0.00 | 0.00 | 0.00 | 47 | 1012.8 |
| 20260506143403 | 60 | 16 | 5.0 | 9.0 | 0.00 | 0.00 | 0.00 | 46 | 1012.8 |
| 20260506142905 | 60 | 35 | 5.0 | 9.0 | 0.00 | 0.00 | 0.00 | 47 | 1012.8 |
| 20260506142403 | 60 | 343 | 3.0 | 10.0 | 0.00 | 0.00 | 0.00 | 46 | 1012.8 |
| 20260506141906 | 60 | 325 | 4.0 | 10.0 | 0.00 | 0.00 | 0.00 | 45 | 1012.8 |
| 20260506141403 | 60 | 8 | 3.0 | 8.0 | 0.00 | 0.00 | 0.00 | 46 | 1012.8 |
| 20260506140903 | 60 | 20 | 6.0 | 10.0 | 0.00 | 0.00 | 0.00 | 47 | 1012.8 |
| 20260506140403 | 60 | 355 | 3.0 | 12.0 | 0.00 | 0.00 | 0.00 | 46 | 1012.8 |
| 20260506135905 | 61 | 13 | 5.0 | 10.0 | 0.00 | 0.00 | 0.00 | 45 | 1012.8 |
| 20260506135404 | 61 | 347 | 4.0 | 12.0 | 0.00 | 0.00 | 0.00 | 45 | 1012.8 |
| 20260506134403 | 61 | 19 | 6.0 | 14.0 | 0.00 | 0.00 | 0.00 | 44 | 1012.9 |
| 20260506133904 | 62 | 341 | 5.0 | 9.0 | 0.00 | 0.00 | 0.00 | 44 | 1012.9 |
| 20260506133405 | 62 | 15 | 7.0 | 12.0 | 0.00 | 0.00 | 0.00 | 42 | 1012.9 |
| 20260506132903 | 62 | 9 | 5.0 | 12.0 | 0.00 | 0.00 | 0.00 | 43 | 1013.0 |
| 20260506132403 | 62 | 354 | 7.0 | 14.0 | 0.00 | 0.00 | 0.00 | 43 | 1013.0 |
| 20260506131904 | 63 | 18 | 6.0 | 12.0 | 0.00 | 0.00 | 0.00 | 41 | 1012.9 |
| 20260506131403 | 63 | 34 | 3.0 | 14.0 | 0.00 | 0.00 | 0.00 | 41 | 1012.9 |
| 20260506130904 | 62 | 31 | 4.0 | 12.0 | 0.00 | 0.00 | 0.00 | 44 | 1012.9 |
| 20260506130404 | 62 | 357 | 3.0 | 8.0 | 0.00 | 0.00 | 0.00 | 44 | 1012.9 |
| 20260506125905 | 62 | 32 | 4.0 | 7.0 | 0.00 | 0.00 | 0.00 | 44 | 1013.0 |
| 20260506125404 | 62 | 341 | 3.0 | 7.0 | 0.00 | 0.00 | 0.00 | 42 | 1013.0 |
| 20260506124403 | 63 | 356 | 5.0 | 12.0 | 0.00 | 0.00 | 0.00 | 42 | 1013.0 |
| 20260506123904 | 62 | 352 | 5.0 | 12.0 | 0.00 | 0.00 | 0.00 | 42 | 1012.9 |
| 20260506122904 | 63 | 2 | 7.0 | 15.0 | 0.00 | 0.00 | 0.00 | 43 | 1013.0 |
| 20260506122404 | 63 | 38 | 3.0 | 10.0 | 0.00 | 0.00 | 0.00 | 44 | 1012.9 |
| 20260506121904 | 63 | 27 | 7.0 | 14.0 | 0.00 | 0.00 | 0.00 | 43 | 1013.0 |
| 20260506121404 | 63 | 15 | 5.0 | 12.0 | 0.00 | 0.00 | 0.00 | 43 | 1013.0 |
| 20260506120904 | 63 | 24 | 3.0 | 12.0 | 0.00 | 0.00 | 0.00 | 44 | 1013.0 |
| 20260506120403 | 63 | 13 | 6.0 | 10.0 | 0.00 | 0.00 | 0.00 | 46 | 1013.1 |
| 20260506115403 | 62 | 340 | 6.0 | 10.0 | 0.00 | 0.00 | 0.00 | 45 | 1013.1 |
| 20260506114904 | 62 | 18 | 6.0 | 12.0 | 0.00 | 0.00 | 0.00 | 46 | 1013.1 |
| 20260506113904 | 62 | 12 | 6.0 | 14.0 | 0.00 | 0.00 | 0.00 | 46 | 1013.1 |
| 20260506113405 | 62 | 358 | 5.0 | 9.0 | 0.00 | 0.00 | 0.00 | 48 | 1013.2 |